Weather History for MMSP - November, 2013

Change the Weather History Date:

Friday, November 29, 2013

  Actual Average Record
Temperature  
Mean Temperature 42 °F -  
Max Temperature 58 °F 67 °F 82 °F (2004)
Min Temperature 26 °F 37 °F 26 °F (1999)
Degree Days  
Heating Degree Days 23    
Moisture  
Dew Point 41 °F    
Average Humidity 89    
Maximum Humidity 100    
Minimum Humidity 61    
Precipitation  
Precipitation 0.00 in - - ()
Sea Level Pressure  
Sea Level Pressure 30.38 in    
Wind  
Wind Speed 3 mph ()    
Max Wind Speed 13 mph    
Max Gust Speed -    
Visibility 4.4 miles    
Events Fog    
Averages and records for this station are not official NWS values.
T = Trace of Precipitation, MM = Missing Value Source: Averaged Metar Reports

Daily Weather History Graph

Daily Weather History Graph

Search for Another Location

Airport or City:

Trip Planner

Search our weather history database for the weather conditions in past years. The results will help you decide how hot, cold, wet, or windy it might be!

Date:

Astronomy

Nov. 29, 2013 Rise Set
Actual Time 7:05 AM CST 5:58 PM CST
Civil Twilight 6:41 AM CST 6:22 PM CST
Nautical Twilight 6:13 AM CST 6:50 PM CST
Astronomical Twilight 5:46 AM CST 7:17 PM CST
Moon 3:35 AM CST (11/29) 3:25 PM CST (11/29)
Length of Visible Light 11h 41m
Length of Day
10h 53m
Waning Crescent, 14% of the Moon is Illuminated
Nov 29
Waning Crescent
Dec 2
New
Dec 9
First Quarter
Dec 17
Full
Dec 25
Last Quarter

Hourly Weather History & Observations

Time (CST) Temp. Windchill Dew Point Humidity Pressure Visibility Wind Dir Wind Speed Gust Speed Precip Events Conditions
12:45 AM 39.2 °F - 39.2 °F 100% 30.40 in 1.0 mi Calm Calm - N/A   Mostly Cloudy
1:03 AM 39.2 °F - 39.2 °F 100% 30.39 in 0.5 mi Calm Calm - N/A Fog Fog
1:47 AM 39.2 °F - 39.2 °F 100% 30.40 in 0.2 mi Calm Calm - N/A Fog Fog
2:42 AM 39.2 °F - 39.2 °F 100% 30.18 in 0.1 mi Calm Calm - N/A Fog Fog
2:50 AM 43 °F - 40 °F 86% 30.25 in 5 mi North 2.2 mph - -   Overcast
3:40 AM 39.2 °F 34.2 °F 39.2 °F 100% 30.39 in 0.1 mi North 6.9 mph - N/A Fog Fog
4:43 AM 39.2 °F - 39.2 °F 100% 30.40 in 0.2 mi Calm Calm - N/A Fog Fog
5:47 AM 39.2 °F - 39.2 °F 100% 30.19 in 0.5 mi Calm Calm - N/A Fog Fog
5:50 AM 43 °F - 41 °F 90% 30.31 in 5 mi North 2.2 mph - -   Overcast
6:44 AM 39.2 °F 34.2 °F 39.2 °F 100% 30.43 in 1.0 mi North 6.9 mph - N/A   Overcast
7:20 AM 39.2 °F 32.5 °F 39.2 °F 100% 30.44 in 1.0 mi ENE 10.4 mph - N/A   Overcast
7:49 AM 39.2 °F 33.6 °F 39.2 °F 100% 30.46 in 1.0 mi NE 8.1 mph - N/A   Overcast
8:45 AM 41 °F - 41 °F 99% 30.45 in 6 mi North 2.2 mph - -   Haze
8:49 AM 39.2 °F 33.0 °F 39.2 °F 100% 30.38 in 2.0 mi NE 9.2 mph - N/A   Overcast
9:45 AM 41.0 °F 37.1 °F 39.2 °F 93% 30.49 in 4.0 mi East 5.8 mph - N/A   Overcast
10:50 AM 42.8 °F 40.1 °F 39.2 °F 87% 30.49 in 6.0 mi East 4.6 mph - N/A   Overcast
11:45 AM 45 °F - 44 °F 96% 30.47 in 6 mi Calm Calm - -   Haze
11:51 AM 42.8 °F 39.3 °F 39.2 °F 87% 30.39 in 6.0 mi ENE 5.8 mph - N/A   Overcast
12:46 PM 46.4 °F - 39.2 °F 76% 30.45 in 8.0 mi Calm Calm - N/A   Overcast
1:47 PM 50.0 °F - 41.0 °F 71% 30.41 in 12.0 mi NNW 5.8 mph - N/A   Overcast
2:50 PM 53 °F - 44 °F 61% 30.35 in 6 mi North 4.5 mph - -   Haze
3:45 PM 55.4 °F - 46.4 °F 72% 30.36 in 8.0 mi NE 12.7 mph - N/A   Mostly Cloudy
4:44 PM 55.4 °F - 46.4 °F 72% 30.37 in 8.0 mi NE 12.7 mph - N/A   Mostly Cloudy
5:45 PM 53 °F - 49 °F 84% 30.31 in 6 mi North 4.5 mph - -   Haze
5:48 PM 51.8 °F - 46.4 °F 82% 30.26 in 8.0 mi ENE 9.2 mph - N/A   Mostly Cloudy
6:44 PM 46.4 °F 43.5 °F 42.8 °F 87% 30.40 in 5.0 mi ENE 5.8 mph - N/A   Mostly Cloudy
7:48 PM 44.6 °F - 41.0 °F 87% 30.43 in 5.0 mi Calm Calm - N/A   Mostly Cloudy
8:41 PM 44.6 °F - 41.0 °F 87% 30.33 in 5.0 mi Calm Calm - N/A   Scattered Clouds
8:50 PM 46 °F - 44 °F 89% 30.34 in 5 mi North 2.2 mph - -  
9:47 PM 42.8 °F - 39.2 °F 87% 30.45 in 5.0 mi Calm Calm - N/A   Scattered Clouds
10:45 PM 44.6 °F 41.4 °F 41.0 °F 87% 30.45 in 6.0 mi ESE 5.8 mph - N/A   Scattered Clouds
11:50 PM 41 °F - 37 °F 82% 30.32 in 5 mi North 2.2 mph - -  
11:53 PM 44.6 °F 40.7 °F 41.0 °F 87% 30.34 in 6.0 mi SE 6.9 mph - N/A   Mostly Cloudy